This demonstration page uses our WeatherBlox Daily Observations layout. Learn more.

Left ArrowRight Arrow

Hourly Observations for October 9, 2015

Temp ( °F °C ) Dew Point ( °F °C ) Humidity (%) Winds ( mph kmh ) Pressure ( in mb ) Visibility ( mi km ) Precip ( " mm )
12:53 am 00:53 Clear 58 14.4 57 13.9 97 97 Calm 29.98 1015 7 11 0.00 0.00
1:53 am 01:53 Mostly Cloudy with Mist and Fog 59 15 57 13.9 93 93 Calm 29.97 1015 6 10 0.00 0.00
2:53 am 02:53 Mostly Clear 59 15 58 14.4 96 96 Calm 29.97 1015 7 11 0.00 0.00
3:53 am 03:53 Clear with Mist and Fog 59 15 58 14.4 96 96 Calm 29.96 1015 6 10 0.00 0.00
4:53 am 04:53 Mostly Cloudy 60 15.6 58 14.4 93 93 Calm 29.94 1014 7 11 0.00 0.00
5:53 am 05:53 Mostly Cloudy 60 15.6 59 15 96 96 Calm 29.95 1014 8 13 0.00 0.00
6:53 am 06:53 Mostly Cloudy 64 17.8 60 15.6 87 87 WSW 3 6 29.96 1014 10 16 0.00 0.00
7:53 am 07:53 Cloudy 65 18.3 60 15.6 84 84 VRB 3 6 29.97 1015 10 16 0.00 0.00
8:53 am 08:53 Mostly Cloudy 67 19.4 60 15.6 79 79 VRB 5 7 29.98 1015 10 16 0.00 0.00
9:53 am 09:53 Sunny 69 20.6 60 15.6 73 73 W 7 11 29.99 1016 10 16 0.00 0.00
10:53 am 10:53 Sunny 70 21.1 61 16.1 73 73 W 5 7 30.00 1016 10 16 0.00 0.00
11:53 am 11:53 Mostly Cloudy 72 22.2 61 16.1 68 68 NW 16 26 30.02 1017 10 16 0.00 0.00
12:02 pm 12:02 Mostly Cloudy 72 22.2 61 16.1 68 68 WNW 16 26 30.03 1017 10 16 0.00 0.00
12:53 pm 12:53 Cloudy 70 21.1 61 16.1 73 73 WNW 14 22 30.04 1017 9 14 0.00 0.00
1:39 pm 13:39 Partly Cloudy 71 21.7 60 15.6 68 68 NW 8 13 30.03 1017 10 16 0.00 0.00
1:53 pm 13:53 Partly Cloudy 72 22.2 59 15 64 64 WNW 10 17 30.03 1017 10 16 0.00 0.00
2:53 pm 14:53 Partly Cloudy 69 20.6 56 13.3 63 63 NNW 15 24 30.03 1017 10 16 0.00 0.00
3:53 pm 15:53 Partly Cloudy 68 20 53 11.7 59 59 N 13 20 30.03 1017 10 16 0.00 0.00
4:53 pm 16:53 Cloudy 65 18.3 51 10.6 61 61 NNW 13 20 30.05 1018 10 16 0.00 0.00
5:53 pm 17:53 Mostly Cloudy 64 17.8 51 10.6 63 63 NNW 12 19 30.07 1018 10 16 0.00 0.00
6:53 pm 18:53 Cloudy 63 17.2 49 9.4 60 60 NNW 7 11 30.09 1019 10 16 0.00 0.00
7:53 pm 19:53 Cloudy 62 16.7 48 8.9 60 60 N 8 13 30.10 1019 10 16 0.00 0.00
8:53 pm 20:53 Cloudy 62 16.7 48 8.9 60 60 N 8 13 30.13 1020 10 16 0.00 0.00
9:53 pm 21:53 Cloudy 61 16.1 48 8.9 63 63 N 5 7 30.14 1021 10 16 0.00 0.00
10:53 pm 22:53 Cloudy 60 15.6 48 8.9 65 65 VRB 5 7 30.15 1021 10 16 0.00 0.00
11:53 pm 23:53 Mostly Cloudy 56 13.3 48 8.9 75 75 NNW 3 6 30.16 1021 10 16 0.00 0.00

Powered by AerisWeather